This is the latest recevied weather packets stored in our database for station/object SV9TNF-1. If no packets are shown the sender has not sent any weather packets the latest 10 day(s).
| Time | Temp. | Humidity | Pressure | Rain* | Wind** | Luminosity | Snow |
|---|---|---|---|---|---|---|---|
| 1778221879 | 21.11° C | 48% | 1006.1 hPa | 0 mm | 5.81 m/s, 336° | - | - |
| 1778221579 | 21.11° C | 44% | 1006.1 hPa | 0 mm | 4.92 m/s, 315° | - | - |
| 1778221286 | 20.56° C | 47% | 1006.1 hPa | 0 mm | 4.92 m/s, 321° | - | - |
| 1778220979 | 20.56° C | 53% | 1006.1 hPa | 0 mm | 4.92 m/s, 325° | - | - |
| 1778220679 | 19.44° C | 60% | 1006.1 hPa | 0 mm | 10.28 m/s, 327° | - | - |
| 1778220380 | 19.44° C | 65% | 1006.1 hPa | 0 mm | 7.15 m/s, 337° | - | - |
| 1778220079 | 19.44° C | 69% | 1006.1 hPa | 0 mm | 8.49 m/s, 0° | - | - |
| 1778219779 | 18.89° C | 70% | 1006.4 hPa | 0 mm | 6.26 m/s, 333° | - | - |
| 1778219478 | 18.89° C | 72% | 1006.4 hPa | 0 mm | 6.71 m/s, 265° | - | - |
| 1778219178 | 18.89° C | 74% | 1006.4 hPa | 0 mm | 9.83 m/s, 145° | - | - |
| 1778218879 | 18.89° C | 73% | 1006.4 hPa | 0 mm | 11.18 m/s, 261° | - | - |
| 1778218578 | 18.89° C | 73% | 1005.8 hPa | 0 mm | 9.39 m/s, 317° | - | - |
| 1778218278 | 18.89° C | 72% | 1005.8 hPa | 0 mm | 11.18 m/s, 257° | - | - |
| 1778217978 | 18.89° C | 72% | 1005.8 hPa | 0 mm | 8.94 m/s, 331° | - | - |
| 1778217678 | 18.89° C | 71% | 1005.1 hPa | 0 mm | 4.92 m/s, 319° | - | - |
| 1778217378 | 18.89° C | 69% | 1005.1 hPa | 0 mm | 4.92 m/s, 271° | - | - |
| 1778217078 | 18.89° C | 69% | 1004.1 hPa | 0 mm | 0.89 m/s, 139° | - | - |
| 1778216778 | 19.44° C | 67% | 1004.1 hPa | 0 mm | 0 m/s | - | - |
| 1778216478 | 19.44° C | 56% | 1004.1 hPa | 0 mm | 2.68 m/s, 125° | - | - |
| 1778216177 | 19.44° C | 54% | 1004.1 hPa | 0 mm | 2.68 m/s, 120° | - | - |
| 1778215877 | 19.44° C | 55% | 1004.1 hPa | 0 mm | 1.34 m/s, 120° | - | - |
| 1778215577 | 18.89° C | 59% | 1003.7 hPa | 0 mm | 0 m/s | - | - |
| 1778215277 | 18.33° C | 62% | 1003.7 hPa | 0 mm | 2.68 m/s, 133° | - | - |
| 1778214977 | 18.33° C | 68% | 1003.7 hPa | 0 mm | 1.79 m/s, 119° | - | - |
| 1778214678 | 18.33° C | 70% | 1003.7 hPa | 0 mm | 4.92 m/s, 112° | - | - |
* Rain latest hour (hover to see other rain measurements)
** Current wind speed in m/s (hover to see current wind gust speed)